Regional Weather Roundup
Issued by NWS Mobile, AL

Home | Current Version | Previous Version | Text Only | Print | Product List | Glossary On
Versions: 1 2 3 4 5 6 7 8 9 10 11 12 13 14 15 16 17 18 19 20 21 22 23 24 25 26 27 28 29 30 31 32 33 34 35 36 37 38 39 40 41 42 43 44 45 46 47 48 49 50
000
ASUS44 KMOB 020310
RWRMOB
REGIONAL WEATHER ROUNDUP
NATIONAL WEATHER SERVICE MOBILE AL
1000 PM CDT FRI AUG 01 2014

NOTE: "FAIR" INDICATES FEW OR NO CLOUDS BELOW 12,000 FEET WITH NO
      SIGNIFICANT WEATHER AND/OR OBSTRUCTIONS TO VISIBILITY.

  * THESE STATIONS ARE PART OF THE UNIVERSITY OF SOUTH ALABAMA
    MESONET AND ARE NOT UNDER NWS OR FAA QUALITY CONTROL.

ALZ061>064-020400-
COASTAL ALABAMA

CITY           SKY/WX    TMP DP  RH WIND       PRES   REMARKS
MOBILE REG APT CLOUDY    75  71  87 CALM      30.00R
BROOKLEY FIELD LGT RAIN  77  70  79 NW5       30.00R
USA CAMPUS*      N/A     73  70  88 CALM      29.99R
DOG RIVER*       N/A     77  73  88 CALM      29.99R


CITY           SKY/WX    TMP DP  RH WIND       PRES   REMARKS
MOUNT VERNON*    N/A     72  70  94 CALM      29.99R
SARALAND*      NOT AVBL
BAY MINETTE*   NOT AVBL
LOXLEY*          N/A     73  72  94 CALM      29.99R
ROBERTSDALE*     N/A    N/A N/A N/A CALM      29.99R
FAIRHOPE*        N/A     73  72  94 CALM      29.98R
ELBERTA*         N/A     77  64  65 CALM      29.98R
FOLEY*         NOT AVBL
GRAND BAY*       N/A     73  72  94 CALM      29.98R
DAUPHIN ISLND* NOT AVBL
BON SCOUR NWR* NOT AVBL
GULF SHORES    MOCLDY    74  71  89 CALM      29.98R

$$

ALZ051>060-020400-
INTERIOR SOUTHWEST AND SOUTH CENTRAL ALABAMA

CITY           SKY/WX    TMP DP  RH WIND       PRES   REMARKS
GREENVILLE     MOCLDY    76  71  85 CALM      30.01R
EVERGREEN      CLOUDY    76  72  87 CALM      30.00R
CASTLEBERRY*   NOT AVBL
ATMORE*          N/A     75  73  94 CALM      30.01R
DIXIE*         NOT AVBL
ANDALUSIA/OPP  PTCLDY    80  72  76 E3        30.00R
ANDALUSIA*     NOT AVBL
FLORALA APT    PTCLDY    77  72  84 NE5       30.02R
FLORALA*         N/A     75  70  83 CALM      29.97R

$$

FLZ001>006-020400-
WESTERN FLORIDA PANHANDLE

CITY           SKY/WX    TMP DP  RH WIND       PRES   REMARKS
PENSACOLA      MOCLDY    76  67  73 CALM      29.98R
NAS PENSACOLA  MOCLDY    74  72  93 NW3       29.97R
MILTON         MOCLDY    75  70  84 N3        29.99R
WHTNG S FIELD  MOCLDY    76  70  82 NW3       29.99R


CITY           SKY/WX    TMP DP  RH WIND       PRES   REMARKS
WALNUT HILL*   NOT AVBL
JAY*           NOT AVBL
DUKE FIELD     MOCLDY    74  69  85 CALM      29.97S
CRESTVIEW      CLEAR     73  70  90 CALM      30.00R
VALPARAISO     MOCLDY    78  71  79 CALM      29.98R
DESTIN         CLEAR     78  73  84 CALM      29.98R

$$

MSZ076-079-020400-
INTERIOR SOUTHEAST MISSISSIPPI

CITY           SKY/WX    TMP DP  RH WIND       PRES   REMARKS
LEAKESVILLE*     N/A     72  66  83 CALM        N/A
AGRICOLA*      NOT AVBL

$$

MARINE OBSERVATIONS

STATION/POSITION TIME  TEMP    WIND        PRES    WAVE
                       AIR SEA DIR/SP/G            HT/PER
                 (UTC) (F)     (DEG/KT/KT) (MB)    (FT/S)
PASCAGOULA       0300   78                 1015.3R
PETIT BOIS ISLND 0200          230/  2/  2   N/A
GRAND BAY        0200   79     360/  2     1016.0S
KATRINA CUT      0200   82      20/  4     1015.2R
CEDAR POINT      0200   79     360/  5     1014.9S
E DAUPHIN ISLAND 0200   81      CALM  /  1 1014.8R
MIDDLE BAY LIGHT 0200   81     340/  7     1014.2F
USCG MOBILE BAY  0300      82                N/A
STATE DOCKS      0200   81 83              1015.0R
MEAHER PARK      0200   79     350/  2     1015.2R
WEEKS BAY        0200   75                   N/A
FORT MORGAN      0300   81                 1014.7R
12 S ORANGE BCH  0300   82 84   10/  6/  6 1015.0R   0
PENSACOLA BAY    0200   83 83              1015.1R
64 S DAUPHIN ISL 0211   83 85  100/  4/  6 1015.4R
67 S FORT MORGAN 0200   81                 1015.2R

$$

SELECTED LOCATIONS ACROSS THE REGION

CITY           SKY/WX    TMP DP  RH WIND       PRES   REMARKS
NEW ORLEANS    PTCLDY    79  68  69 SE5       29.97R
GULFPORT       PTCLDY    79  70  74 CALM      29.98S
PASCAGOULA AP  CLOUDY    73  71  93 CALM      29.99R
PASCAGOULA*      N/A     77  72  83 CALM      29.99R
HATTIESBURG    PTCLDY    73  71  93 CALM      30.00R
LAUREL         PTCLDY    73  70  88 CALM      30.01S
MERIDIAN       MOCLDY    72  68  87 CALM      30.01R
JACKSON        CLOUDY    73  71  93 CALM      30.00R
MONTGOMERY     MOCLDY    78  71  79 CALM      30.01R
TROY           PTCLDY    74  70  87 CALM      30.02R
KINSTON*       NOT AVBL
GENEVA*          N/A     77  70  78 E2        30.01R
ASHFORD*       NOT AVBL
DOTHAN         MOCLDY    76  71  85 NE3       30.04R
PANAMA CITY    CLEAR     75  70  84 CALM      29.97S

$$



USA.gov is the U.S. government's official web portal to all federal, state and local government web resources and services.